sat.trackr.live / text

‹ back to catalog

STARLINK-32212

NORAD 60256 · 2024-131B

PAYLOAD ACTIVE UNKNOWN

§ Identity

Operator
Country
US
Launch date
2024-07-27
Launch site
AFETR
Launch vehicle
Mass (kg)
RCS (m²)

Purposes: comms

External: N2YO · Heavens-Above · Gunter

§ Orbital elements

Epoch: 2026-09-21T06:57:15.522336Z

Period
93.55 min
Inclination
53.1574°
Eccentricity
0.0005408
Mean motion
15.39238152 rev/d
Perigee alt
444.7 km
Apogee alt
452.1 km
Semi-major
6,826.5 km
B*
1.1586e-3
RAAN
221.2278°
Arg perigee
71.4545°
Mean anomaly
288.7047°
Rev number
12,170

§ Raw data

STARLINK-322121 60256U 24131B   26264.28976299  .00045659  00000+0  11586-2 0  99932 60256  53.1574 221.2278 0005408  71.4545 288.7047 15.39238152121709

JSON: /api/v1/satellites/60256 · /tle

For live sub-satellite position, see the globe view (requires WebGL).

§ Visibility from observer

Set your observer location to see the next 7 days of passes ≥ 10°. The values pass through the URL so the page stays shareable.

No JS? Fill the form by hand. The geolocation button needs JavaScript.